Morrisville, VT

7:16 AM EST on February 27, 2017 (GMT -0500)
Morrisville Stowe State

Weather History for KMVL - January, 2013

Change the Weather History Date:

Sunday, January 13, 2013

  Actual Average Record
Temperature  
Mean Temperature 40 °F 16 °F  
Max Temperature 47 °F 26 °F 47 °F (2013)
Min Temperature 33 °F 5 °F -20 °F (1999)
Degree Days  
Heating Degree Days 25 49  
Month to date heating degree days 592 629  
Since 1 July heating degree days 3436 3767  
Cooling Degree Days 0 0  
Month to date cooling degree days 0 0  
Year to date cooling degree days 0 0  
Moisture  
Dew Point 35 °F    
Average Humidity 88    
Maximum Humidity 100    
Minimum Humidity 76    
Precipitation  
Precipitation 0.01 in 0.08 in 0.36 in (1950)
Month to date precipitation 0.31 1.20  
Year to date precipitation 0.31 1.20  
Sea Level Pressure  
Sea Level Pressure 30.00 in    
Wind  
Wind Speed 3 mph (South)    
Max Wind Speed 10 mph    
Max Gust Speed 16 mph    
Visibility 6 miles    
Events Fog    
T = Trace of Precipitation, MM = Missing Value Source: NWS Daily Summary

Daily Weather History Graph

Daily Weather History Graph

Search for Another Location

Airport or City:

Trip Planner

Search our weather history database for the weather conditions in past years. The results will help you decide how hot, cold, wet, or windy it might be!

Date:

Astronomy

Jan. 13, 2013 Rise Set
Actual Time 7:24 AM EST 4:34 PM EST
Civil Twilight 6:51 AM EST 5:06 PM EST
Nautical Twilight 6:15 AM EST 5:43 PM EST
Astronomical Twilight 5:40 AM EST 6:18 PM EST
Moon 8:14 AM EST (1/13) 7:17 PM EST (1/13)
Length of Visible Light 10h 15m
Length of Day
9h 09m
Waxing Crescent, 5% of the Moon is Illuminated
Jan 13
Waxing Crescent
Jan 18
First Quarter
Jan 26
Full
Feb 3
Last Quarter
Feb 10
New

Hourly Weather History & Observations

Time (EST) Temp. Windchill Dew Point Humidity Pressure Visibility Wind Dir Wind Speed Gust Speed Precip Events Conditions
12:54 AM 34.0 °F - 33.1 °F 96% 30.12 in 0.2 mi Calm Calm - N/A Fog Fog
1:54 AM 34.0 °F - 33.1 °F 96% 30.14 in 0.2 mi Calm Calm - N/A Fog Fog
2:54 AM 34.0 °F - 33.1 °F 96% 30.14 in 0.2 mi Calm Calm - N/A Fog Fog
3:54 AM 34.0 °F - 33.1 °F 96% 30.11 in 0.2 mi Calm Calm - N/A Fog Fog
4:54 AM 34.0 °F - 32.0 °F 92% 30.11 in 0.2 mi Calm Calm - N/A Fog Fog
5:25 AM 33.8 °F 30.8 °F 33.8 °F 100% 30.09 in 1.0 mi SSE 3.5 mph - N/A   Mist
5:34 AM 33.8 °F 30.8 °F 33.8 °F 100% 30.08 in 0.8 mi Variable 3.5 mph - N/A   Mist
5:54 AM 34.0 °F - 34.0 °F 100% 30.09 in 0.8 mi Calm Calm - N/A   Mist
6:54 AM 34.0 °F 28.8 °F 33.1 °F 96% 30.09 in 0.8 mi South 5.8 mph - N/A   Mist
7:54 AM 34.0 °F 31.0 °F 33.1 °F 96% 30.10 in 0.5 mi SSE 3.5 mph - N/A Fog Fog
8:12 AM 33.8 °F - 33.8 °F 100% 30.07 in 3.0 mi Calm Calm - N/A   Overcast
8:25 AM 33.8 °F 30.8 °F 33.8 °F 100% 30.07 in 2.0 mi SSE 3.5 mph - N/A   Overcast
8:30 AM 33.8 °F 30.8 °F 33.8 °F 100% 30.07 in 1.0 mi Variable 3.5 mph - N/A   Overcast
8:38 AM 33.8 °F 27.7 °F 33.8 °F 100% 30.07 in 0.8 mi South 6.9 mph - N/A   Overcast
8:54 AM 34.0 °F 29.8 °F 34.0 °F 100% 30.09 in 0.5 mi South 4.6 mph - N/A Fog Fog
9:54 AM 35.1 °F 30.1 °F 35.1 °F 100% 30.07 in 1.2 mi South 5.8 mph - N/A   Overcast
10:05 AM 35.6 °F 31.7 °F 35.6 °F 100% 30.05 in 2.5 mi SSE 4.6 mph - N/A   Overcast
10:26 AM 35.6 °F 32.8 °F 35.6 °F 100% 30.03 in 8.0 mi South 3.5 mph - N/A   Overcast
10:54 AM 37.0 °F 33.3 °F 35.1 °F 93% 30.05 in 10.0 mi South 4.6 mph - N/A   Overcast
11:01 AM 37.4 °F 31.4 °F 35.6 °F 93% 30.01 in 10.0 mi SSE 8.1 mph - N/A   Overcast
11:54 AM 39.9 °F 36.7 °F 36.0 °F 86% 30.00 in 10.0 mi South 4.6 mph - 0.01 in   Mostly Cloudy
12:54 PM 42.1 °F 36.6 °F 37.0 °F 82% 29.95 in 10.0 mi South 9.2 mph - N/A   Mostly Cloudy
1:54 PM 43.0 °F 39.5 °F 37.0 °F 80% 29.91 in 10.0 mi SSE 5.8 mph - N/A   Clear
2:54 PM 44.1 °F 40.1 °F 37.0 °F 76% 29.88 in 10.0 mi SSE 6.9 mph - N/A   Clear
3:54 PM 43.0 °F - 36.0 °F 76% 29.92 in 10.0 mi Calm Calm - N/A   Overcast
4:54 PM 41.0 °F 38.0 °F 36.0 °F 82% 29.91 in 10.0 mi South 4.6 mph - N/A   Overcast
5:05 PM 42.8 °F 37.5 °F 37.4 °F 81% 29.89 in 10.0 mi South 9.2 mph - N/A   Overcast
5:26 PM 42.8 °F - 37.4 °F 81% 29.90 in 10.0 mi Calm Calm - N/A   Overcast
5:54 PM 39.9 °F 37.8 °F 35.1 °F 83% 29.93 in 10.0 mi NW 3.5 mph - N/A   Overcast
6:18 PM 39.2 °F - 35.6 °F 87% 29.90 in 10.0 mi Calm Calm - N/A   Overcast
6:54 PM 41.0 °F 37.1 °F 36.0 °F 82% 29.94 in 10.0 mi South 5.8 mph - N/A   Overcast
7:54 PM 37.9 °F 35.5 °F 35.1 °F 89% 29.92 in 10.0 mi SSE 3.5 mph - N/A   Partly Cloudy
8:54 PM 39.9 °F - 37.0 °F 89% 29.93 in 10.0 mi Calm Calm - N/A   Mostly Cloudy
9:54 PM 36.0 °F - 34.0 °F 93% 29.91 in 10.0 mi Calm Calm - N/A   Mostly Cloudy
10:54 PM 39.0 °F - 36.0 °F 89% 29.92 in 5.0 mi Calm Calm - N/A   Overcast
11:04 PM 35.6 °F - 35.6 °F 100% 29.91 in 8.0 mi Calm Calm - N/A   Mostly Cloudy
11:21 PM 37.4 °F - 35.6 °F 93% 29.90 in 5.0 mi Calm Calm - N/A   Overcast
11:54 PM 36.0 °F - 35.1 °F 97% 29.91 in 6.0 mi Calm Calm - N/A   Overcast